Home   Weather   San Luis Potosi   Past weeks

Flag for Mexico Past Weather in San Luis Potosi, San Luis Potosí, Mexico — Yesterday and Last 2 Weeks

Now
45 °F

Clear.


Feels Like: 42 °F
Forecast: 42 / 74 °F
Wind: 5 mph from Southwest

Location: San Luis Potosi - S. L. P.

Current Time: Jan 21, 2018 at 5:11:59 am

Latest Report: Jan 21, 2018 at 3:47 am


Visibility: 7 mi

Pressure: 30.18 "Hg (24.01 "Hg at 1876m altitude)

Humidity: 49%

Dew Point: 27 °F

Location of San Luis PotosiLocation

Past Weather in San Luis Potosi — Graph

°F

San Luis Potosi Temperature Yesterday

Maximum temperature yesterday: 73 °F (at 3:40 pm)
Minimum temperature yesterday: 39 °F (at 4:43 am)
Average temperature yesterday: 55 °F

High & Low Weather Summary for the Past Weeks

 TemperatureHumidityPressure
High81 °F (Jan 10, 3:52 pm)100% (Jan 6, 10:00 am)30.51 "Hg (Jan 6, 10:00 am)
Low21 °F (Jan 15, 6:45 am)1% (Jan 11, 2:51 pm)29.59 "Hg (Jan 6, 5:42 am)
Average50 °F46%30.23 "Hg
* Reported Jan 6 3:45 am — Jan 21 3:47 am, San Luis Potosi. Weather by CustomWeather, © 2018

Note: Actual official high and low records may vary slightly from our data, if they occured in-between our weather recording intervals... More about our weather records

Advertising

San Luis Potosi Weather History for the Previous 24 Hours

Scroll right to see more
 ConditionsComfort  
Time TempWeatherWind HumidityBarometerVisibility
3:47 am
Sun, Jan 21
45 °FClear.5 mph49%30.18 "Hg7 mi
2:50 am45 °FClear.No wind37%29.88 "Hg8 mi
1:45 am45 °FClear.No wind34%30.21 "Hg8 mi
12:50 am46 °FClear.No wind37%30.20 "Hg8 mi
11:40 pm
Sat, Jan 20
54 °FClear.5 mph38%29.93 "Hg8 mi
10:49 pm54 °FClear.6 mph38%N/A8 mi
9:45 pm41 °FClear.5 mph53%30.21 "Hg8 mi
8:47 pm59 °FClear.No wind27%29.94 "Hg10 mi
7:40 pm61 °FClear.No wind23%30.18 "Hg10 mi
6:54 pm66 °FPassing clouds.5 mph12%30.15 "Hg12 mi
5:45 pm72 °FScattered clouds.8 mph8%29.85 "Hg15 mi
4:45 pm73 °FBroken clouds.5 mph8%30.12 "Hg15 mi
3:40 pm73 °FBroken clouds.8 mph10%30.12 "Hg15 mi
1:44 pm72 °FPartly sunny.14 mph13%30.17 "Hg10 mi
12:44 pm70 °FScattered clouds.3 mph18%30.22 "Hg8 mi
11:45 am64 °FSunny.5 mph26%29.96 "Hg8 mi
10:52 am61 °FSunny.6 mph31%30.28 "Hg7 mi
9:42 am54 °FSunny.No wind44%30.28 "Hg6 mi
8:47 am46 °FPassing clouds.5 mph62%30.06 "Hg6 mi
7:41 am39 °FSunny.3 mph70%30.24 "Hg6 mi
6:43 am39 °FClear.5 mph70%30.23 "Hg8 mi
5:49 am41 °FClear.5 mph70%29.99 "Hg6 mi
Weather by CustomWeather, © 2018

See weather overview